Location: *
(46.3500°N, 10.9000°E)
Time: 11:06:24
(UTC+00:00)

Nadezhda 1 Rocket - Pass Details

Date: 09 April 2020
Orbit: 940 x 1006 km, 83.0° (Epoch: 22 May)

Event Time Altitude Azimuth Distance (km) Brightness Sun altitude
Rises 19:16:13 0° 194° (SSW) 3,720 6.9 -13.7°
Reaches altitude 10° 19:18:46 10° 196° (SSW) 2,772 6.3 -14.1°
Maximum altitude 19:25:08 70° 280° (W) 1,061 4.4 -15.1°
Drops below altitude 10° 19:31:28 10° 5° (N) 2,761 6.7 -16.0°
Sets 19:34:00 0° 7° (N) 3,704 7.4 -16.4°
